Location: Saint-Palais-sur-Mer
(45.6429°N, 1.0859°W)
Time: 00:14:59
(UTC+01:00)

Vanguard 1 - Pass Details

Date: 16 February 2026
Orbit: 653 x 3818 km, 34.2° (Epoch: 12 March)

Event Time Altitude Azimuth Distance (km) Brightness Sun altitude
Rises 22:39:32 0° 279° (W) 6,916 15.1 -42.5°
Reaches altitude 10° 22:44:17 10° 271° (W) 6,236 14.6 -43.2°
Maximum altitude 23:02:12 36° 215° (SW) 5,024 13.4 -45.7°
Enters shadow 23:07:08 34° 195° (SSW) 5,169 13.4 -46.4°
